エレーニン彗星

C/2015 X4 ( Elenin )

English version
Home page
Updated on May 22, 2017

---------------------------------------------------------------------

・ プロフィール

発見日 2015年12月3日
発見光度 18.2等
発見者 Leonid Elenin (ISON-NM observatory near Mayhill, NM, USA)

・ 写真集

・ 軌道要素

Epoch 2015 Oct. 25.0 TT = JDT 2457320.5
T 2015 Nov. 3.43459 TT                                  MPCW
q   3.3946308            (2000.0)            P               Q
n   0.01275804     Peri.  176.32177     +0.18328568     -0.85313747
a  18.1390061      Node   262.63576     +0.88890597     +0.35601041
e   0.8128546      Incl.   29.50446     +0.41982441     -0.38133062
P  77.25
From 579 observations 2015 Oct. 11-2017 Feb. 26, mean residual 0".4.

・ 星図

・ 光度変化

        m1 = 8.5 + 5 logΔ + 10.0 log r

---------------------------------------------------------------------

軌道要素はM.P.E.C. 2017-E59に掲載されたものです。
星図はステラナビゲータ Ver.8 (アストロアーツ) で作成したものです。
光度グラフはComet for Windowsで作成したものです。

---------------------------------------------------------------------

Copyright(C) Seiichi Yoshida (comet@aerith.net). All rights reserved.